Location: Heidgraben
(53.7081°N, 9.6576°E)
Time: 08:50:23
(UTC+00:00)

GP-B - Pass Details

Date: 05 July 2020
Orbit: 631 x 635 km, 89.8° (Epoch: 14 August)

Event Time Altitude Azimuth Distance (km) Brightness Sun altitude
Rises 23:39:15 0° 354° (N) 2,947 8.4 -13.6°
Reaches altitude 10° 23:41:38 10° 345° (NNW) 2,033 6.9 -13.6°
Maximum altitude 23:45:38 33° 282° (WNW) 1,073 4.3 -13.5°
Enters shadow 23:48:52 14° 224° (SW) 1,759 4.9 -13.5°
